| time (UTC) | temp F | wind direction | speed MPH | gust MPH | rain 1hr in | rain 24hr in | rain mn in | humidity % | barometer mb |
| 20260905054653 | 81 | 278 | 3.0 | 5.0 | 0.00 | 0.00 | 0.00 | 45 | 1017.4 |
| 20260905053655 | 81 | 254 | 2.0 | 5.0 | 0.00 | 0.00 | 0.00 | 45 | 1017.3 |
| 20260905052653 | 81 | 228 | 2.0 | 5.0 | 0.00 | 0.00 | 0.00 | 46 | 1017.4 |
| 20260905051652 | 81 | 290 | 4.0 | 12.0 | 0.00 | 0.00 | 0.00 | 46 | 1017.4 |
| 20260905050653 | 81 | 226 | 4.0 | 7.0 | 0.00 | 0.00 | 0.00 | 46 | 1017.3 |
| 20260905045653 | 81 | 210 | 4.0 | 6.0 | 0.00 | 0.00 | 0.00 | 46 | 1017.2 |
| 20260905044652 | 81 | 259 | 3.0 | 5.0 | 0.00 | 0.00 | 0.00 | 47 | 1017.2 |
| 20260905044328 | 80 | 266 | 4.0 | 5.0 | 0.00 | 0.00 | 0.00 | 48 | 1016.9 |
| 20260905043357 | 80 | 233 | 4.0 | 6.0 | 0.00 | 0.00 | 0.00 | 48 | 1016.8 |
| 20260905041655 | 80 | 265 | 4.0 | 5.0 | 0.00 | 0.00 | 0.00 | 48 | 1016.7 |
| 20260905040650 | 80 | 254 | 3.0 | 7.0 | 0.00 | 0.00 | 0.00 | 47 | 1016.7 |
| 20260905035652 | 80 | 272 | 2.0 | 6.0 | 0.00 | 0.00 | 0.00 | 48 | 1016.7 |
| 20260905034649 | 79 | 248 | 3.0 | 4.0 | 0.00 | 0.00 | 0.00 | 48 | 1016.7 |
| 20260905033654 | 79 | 269 | 2.0 | 4.0 | 0.00 | 0.00 | 0.00 | 49 | 1016.7 |
| 20260905032650 | 80 | 254 | 2.0 | 4.0 | 0.00 | 0.00 | 0.00 | 48 | 1016.7 |
| 20260905031648 | 80 | 289 | 3.0 | 5.0 | 0.00 | 0.00 | 0.00 | 48 | 1016.8 |
| 20260905030649 | 80 | 278 | 3.0 | 5.0 | 0.00 | 0.00 | 0.00 | 49 | 1016.8 |
| 20260905030355 | 79 | 261 | 3.0 | 4.0 | 0.00 | 0.00 | 0.00 | 49 | 1016.8 |
| 20260905024652 | 80 | 269 | 2.0 | 5.0 | 0.00 | 0.00 | 0.00 | 50 | 1016.8 |
| 20260905023648 | 79 | 227 | 2.0 | 4.0 | 0.00 | 0.00 | 0.00 | 51 | 1016.9 |
| 20260905022648 | 80 | 265 | 3.0 | 4.0 | 0.00 | 0.00 | 0.00 | 51 | 1016.8 |
| 20260905021648 | 80 | 268 | 3.0 | 7.0 | 0.00 | 0.00 | 0.00 | 51 | 1016.8 |
| 20260905020648 | 80 | 276 | 3.0 | 4.0 | 0.00 | 0.00 | 0.00 | 52 | 1016.9 |
| 20260905015647 | 79 | 266 | 2.0 | 5.0 | 0.00 | 0.00 | 0.00 | 53 | 1017.1 |
| 20260905014651 | 79 | 240 | 2.0 | 4.0 | 0.00 | 0.00 | 0.00 | 54 | 1017.1 |
| 20260905013647 | 80 | 228 | 2.0 | 5.0 | 0.00 | 0.00 | 0.00 | 52 | 1017.1 |
| 20260905012642 | 80 | 244 | 2.0 | 6.0 | 0.00 | 0.00 | 0.00 | 52 | 1016.9 |
| 20260905011643 | 80 | 234 | 2.0 | 5.0 | 0.00 | 0.00 | 0.00 | 51 | 1017.1 |
| 20260905010644 | 80 | 264 | 2.0 | 5.0 | 0.00 | 0.00 | 0.00 | 51 | 1017.1 |
| 20260905005644 | 80 | 265 | 3.0 | 5.0 | 0.00 | 0.00 | 0.00 | 51 | 1017.1 |
| 20260905004644 | 81 | 278 | 3.0 | 5.0 | 0.00 | 0.00 | 0.00 | 50 | 1017.2 |
| 20260905003639 | 81 | 266 | 3.0 | 5.0 | 0.00 | 0.00 | 0.00 | 50 | 1017.2 |
| 20260905002643 | 80 | 278 | 3.0 | 5.0 | 0.00 | 0.00 | 0.00 | 51 | 1017.4 |
| 20260905001638 | 79 | 269 | 2.0 | 6.0 | 0.00 | 0.00 | 0.00 | 52 | 1017.3 |
| 20260905000636 | 79 | 228 | 3.0 | 9.0 | 0.00 | 0.00 | 0.00 | 52 | 1017.5 |
| 20260904235634 | 79 | 231 | 2.0 | 7.0 | 0.00 | 0.00 | 0.00 | 52 | 1017.5 |
| 20260904235201 | 79 | 223 | 3.0 | 10.0 | 0.00 | 0.00 | 0.00 | 49 | 1017.7 |
| 20260904234807 | 79 | 193 | 3.0 | 7.0 | 0.00 | 0.00 | 0.00 | 51 | 1017.6 |
| 20260904232634 | 80 | 226 | 1.0 | 7.0 | 0.00 | 0.00 | 0.00 | 49 | 1017.8 |
| 20260904231632 | 79 | 275 | 3.0 | 5.0 | 0.00 | 0.00 | 0.00 | 49 | 1017.9 |
| 20260904230633 | 78 | 276 | 1.0 | 3.0 | 0.00 | 0.00 | 0.00 | 47 | 1017.9 |
| 20260904225631 | 79 | 212 | 2.0 | 4.0 | 0.00 | 0.00 | 0.00 | 47 | 1017.8 |
| 20260904224808 | 79 | 254 | 4.0 | 5.0 | 0.00 | 0.00 | 0.00 | 44 | 1017.9 |
| 20260904224751 | 80 | 196 | 3.0 | 6.0 | 0.00 | 0.00 | 0.00 | 44 | 1018.0 |
| 20260904224655 | 80 | 248 | 1.0 | 9.0 | 0.00 | 0.00 | 0.00 | 45 | 1017.9 |
| 20260904221626 | 79 | 271 | 3.0 | 4.0 | 0.00 | 0.00 | 0.00 | 44 | 1017.8 |
| 20260904220628 | 79 | 269 | 3.0 | 4.0 | 0.00 | 0.00 | 0.00 | 45 | 1017.9 |
| 20260904215624 | 78 | 268 | 3.0 | 5.0 | 0.00 | 0.00 | 0.00 | 48 | 1017.9 |
| 20260904215100 | 78 | 255 | 2.0 | 3.0 | 0.00 | 0.00 | 0.00 | 51 | 1017.9 |
| 20260904214739 | 78 | 254 | 2.0 | 3.0 | 0.00 | 0.00 | 0.00 | 49 | 1017.9 |
| 20260904212626 | 78 | 262 | 1.0 | 3.0 | 0.00 | 0.00 | 0.00 | 53 | 1017.9 |
| 20260904211625 | 78 | 250 | 2.0 | 4.0 | 0.00 | 0.00 | 0.00 | 54 | 1018.0 |
| 20260904210626 | 78 | 224 | 3.0 | 4.0 | 0.00 | 0.00 | 0.00 | 57 | 1018.2 |
| 20260904210413 | 77 | 223 | 2.0 | 3.0 | 0.00 | 0.00 | 0.00 | 57 | 1018.2 |
| 20260904204623 | 77 | 241 | 0.0 | 2.0 | 0.00 | 0.00 | 0.00 | 58 | 1018.1 |
| 20260904203623 | 77 | 241 | 0.0 | 2.0 | 0.00 | 0.00 | 0.00 | 59 | 1018.1 |
| 20260904202625 | 77 | 241 | 1.0 | 3.0 | 0.00 | 0.00 | 0.00 | 59 | 1018.1 |
| 20260904201621 | 77 | 235 | 2.0 | 2.0 | 0.00 | 0.00 | 0.00 | 59 | 1018.2 |
| 20260904200620 | 78 | 178 | 2.0 | 4.0 | 0.00 | 0.00 | 0.00 | 59 | 1018.1 |
| 20260904200313 | 78 | 159 | 2.0 | 4.0 | 0.00 | 0.00 | 0.00 | 58 | 1018.2 |
| 20260904194624 | 78 | 104 | 2.0 | 6.0 | 0.00 | 0.00 | 0.00 | 57 | 1018.2 |
| 20260904193620 | 79 | 182 | 1.0 | 6.0 | 0.00 | 0.00 | 0.00 | 57 | 1018.2 |
| 20260904192622 | 79 | 166 | 2.0 | 7.0 | 0.00 | 0.00 | 0.00 | 56 | 1018.2 |
| 20260904191618 | 80 | 149 | 1.0 | 7.0 | 0.00 | 0.00 | 0.00 | 56 | 1018.2 |
| 20260904190617 | 80 | 90 | 2.0 | 5.0 | 0.00 | 0.00 | 0.00 | 55 | 1018.1 |
| 20260904185619 | 80 | 94 | 2.0 | 5.0 | 0.00 | 0.00 | 0.00 | 55 | 1018.2 |
| 20260904184616 | 81 | 87 | 2.0 | 7.0 | 0.00 | 0.00 | 0.00 | 54 | 1018.1 |
| 20260904183614 | 82 | 140 | 2.0 | 7.0 | 0.00 | 0.00 | 0.00 | 53 | 1018.0 |
| 20260904182617 | 82 | 140 | 3.0 | 9.0 | 0.00 | 0.00 | 0.00 | 52 | 1018.0 |
| 20260904182313 | 82 | 117 | 3.0 | 9.0 | 0.00 | 0.00 | 0.00 | 52 | 1017.8 |
| 20260904181324 | 83 | 164 | 3.0 | 9.0 | 0.00 | 0.00 | 0.00 | 52 | 1017.9 |
| 20260904175612 | 83 | 94 | 4.0 | 9.0 | 0.00 | 0.00 | 0.00 | 50 | 1017.8 |
| 20260904174611 | 83 | 103 | 4.0 | 9.0 | 0.00 | 0.00 | 0.00 | 49 | 1017.7 |
| 20260904173611 | 84 | 94 | 4.0 | 7.0 | 0.00 | 0.00 | 0.00 | 47 | 1017.8 |
| 20260904172610 | 84 | 133 | 3.0 | 7.0 | 0.00 | 0.00 | 0.00 | 46 | 1017.7 |
| 20260904171616 | 85 | 138 | 4.0 | 9.0 | 0.00 | 0.00 | 0.00 | 45 | 1017.8 |
| 20260904171330 | 85 | 90 | 3.0 | 10.0 | 0.00 | 0.00 | 0.00 | 44 | 1017.9 |
| 20260904170338 | 85 | 161 | 4.0 | 7.0 | 0.00 | 0.00 | 0.00 | 43 | 1017.9 |
| 20260904164604 | 86 | 87 | 5.0 | 11.0 | 0.00 | 0.00 | 0.00 | 43 | 1017.9 |
| 20260904163608 | 86 | 145 | 4.0 | 10.0 | 0.00 | 0.00 | 0.00 | 45 | 1018.0 |
| 20260904162605 | 86 | 131 | 5.0 | 10.0 | 0.00 | 0.00 | 0.00 | 44 | 1018.0 |
| 20260904161606 | 87 | 125 | 4.0 | 9.0 | 0.00 | 0.00 | 0.00 | 44 | 1018.1 |
| 20260904160608 | 87 | 123 | 5.0 | 12.0 | 0.00 | 0.00 | 0.00 | 42 | 1018.1 |
| 20260904155610 | 88 | 100 | 5.0 | 12.0 | 0.00 | 0.00 | 0.00 | 41 | 1018.2 |
| 20260904154602 | 88 | 159 | 4.0 | 12.0 | 0.00 | 0.00 | 0.00 | 41 | 1018.3 |
| 20260904153603 | 88 | 114 | 6.0 | 11.0 | 0.00 | 0.00 | 0.00 | 40 | 1018.5 |
| 20260904152603 | 88 | 103 | 5.0 | 10.0 | 0.00 | 0.00 | 0.00 | 40 | 1018.4 |
| 20260904151605 | 89 | 100 | 9.0 | 16.0 | 0.00 | 0.00 | 0.00 | 39 | 1018.4 |
| 20260904150603 | 89 | 103 | 6.0 | 11.0 | 0.00 | 0.00 | 0.00 | 38 | 1018.4 |
| 20260904145603 | 90 | 104 | 8.0 | 12.0 | 0.00 | 0.00 | 0.00 | 38 | 1018.6 |
| 20260904144601 | 90 | 92 | 7.0 | 13.0 | 0.00 | 0.00 | 0.00 | 37 | 1018.6 |
| 20260904144252 | 91 | 86 | 7.0 | 12.0 | 0.00 | 0.00 | 0.00 | 37 | 1018.6 |
| 20260904143256 | 91 | 102 | 8.0 | 12.0 | 0.00 | 0.00 | 0.00 | 36 | 1018.5 |
| 20260904141602 | 92 | 133 | 6.0 | 10.0 | 0.00 | 0.00 | 0.00 | 36 | 1018.7 |
| 20260904141106 | 91 | 99 | 7.0 | 11.0 | 0.00 | 0.00 | 0.00 | 37 | 1018.7 |
| 20260904140729 | 91 | 78 | 5.0 | 12.0 | 0.00 | 0.00 | 0.00 | 36 | 1018.7 |
| 20260904134559 | 90 | 27 | 6.0 | 11.0 | 0.00 | 0.00 | 0.00 | 44 | 1018.8 |
| 20260904134259 | 90 | 24 | 4.0 | 11.0 | 0.00 | 0.00 | 0.00 | 42 | 1018.9 |
| 20260904133250 | 90 | 75 | 7.0 | 12.0 | 0.00 | 0.00 | 0.00 | 43 | 1018.9 |
| 20260904131558 | 90 | 92 | 8.0 | 12.0 | 0.00 | 0.00 | 0.00 | 41 | 1019.0 |
| 20260904130558 | 90 | 86 | 7.0 | 14.0 | 0.00 | 0.00 | 0.00 | 41 | 1019.1 |
| 20260904125600 | 91 | 89 | 8.0 | 12.0 | 0.00 | 0.00 | 0.00 | 39 | 1019.2 |
| 20260904125252 | 92 | 90 | 5.0 | 11.0 | 0.00 | 0.00 | 0.00 | 38 | 1019.3 |
| 20260904123555 | 92 | 75 | 5.0 | 12.0 | 0.00 | 0.00 | 0.00 | 37 | 1019.3 |
| 20260904122557 | 93 | 68 | 6.0 | 12.0 | 0.00 | 0.00 | 0.00 | 28 | 1019.5 |
| 20260904122259 | 93 | 79 | 8.0 | 13.0 | 0.00 | 0.00 | 0.00 | 29 | 1019.5 |
| 20260904120553 | 93 | 63 | 6.0 | 11.0 | 0.00 | 0.00 | 0.00 | 28 | 1019.6 |
| 20260904115551 | 93 | 149 | 5.0 | 9.0 | 0.00 | 0.00 | 0.00 | 29 | 1019.7 |
| 20260904114554 | 92 | 93 | 4.0 | 13.0 | 0.00 | 0.00 | 0.00 | 29 | 1019.8 |
| 20260904113551 | 92 | 100 | 3.0 | 10.0 | 0.00 | 0.00 | 0.00 | 30 | 1020.0 |
| 20260904112553 | 94 | 96 | 5.0 | 10.0 | 0.00 | 0.00 | 0.00 | 30 | 1020.0 |
| 20260904111552 | 93 | 93 | 3.0 | 9.0 | 0.00 | 0.00 | 0.00 | 30 | 1020.1 |
| 20260904110548 | 93 | 151 | 4.0 | 7.0 | 0.00 | 0.00 | 0.00 | 30 | 1020.1 |
| 20260904105552 | 93 | 27 | 4.0 | 9.0 | 0.00 | 0.00 | 0.00 | 30 | 1020.1 |
| 20260904104550 | 93 | 86 | 3.0 | 9.0 | 0.00 | 0.00 | 0.00 | 29 | 1020.2 |
| 20260904103547 | 92 | 212 | 2.0 | 6.0 | 0.00 | 0.00 | 0.00 | 30 | 1020.2 |
| 20260904102552 | 91 | 127 | 4.0 | 9.0 | 0.00 | 0.00 | 0.00 | 33 | 1020.4 |
| 20260904101548 | 91 | 354 | 4.0 | 10.0 | 0.00 | 0.00 | 0.00 | 35 | 1020.4 |
| 20260904100548 | 90 | 3 | 0.0 | 9.0 | 0.00 | 0.00 | 0.00 | 34 | 1020.5 |
| 20260904095545 | 89 | 73 | 5.0 | 9.0 | 0.00 | 0.00 | 0.00 | 35 | 1020.7 |
| 20260904094546 | 89 | 140 | 4.0 | 9.0 | 0.00 | 0.00 | 0.00 | 36 | 1020.7 |
| 20260904094229 | 89 | 20 | 1.0 | 7.0 | 0.00 | 0.00 | 0.00 | 37 | 1020.9 |
| 20260904092545 | 89 | 16 | 5.0 | 6.0 | 0.00 | 0.00 | 0.00 | 33 | 1021.0 |
| 20260904092251 | 89 | 169 | 1.0 | 4.0 | 0.00 | 0.00 | 0.00 | 34 | 1020.9 |
| 20260904090548 | 88 | 142 | 3.0 | 5.0 | 0.00 | 0.00 | 0.00 | 36 | 1021.0 |
| 20260904090259 | 86 | 321 | 1.0 | 7.0 | 0.00 | 0.00 | 0.00 | 36 | 1020.9 |
| 20260904085253 | 85 | 92 | 2.0 | 4.0 | 0.00 | 0.00 | 0.00 | 37 | 1020.9 |
| 20260904084306 | 84 | 71 | 4.0 | 6.0 | 0.00 | 0.00 | 0.00 | 39 | 1020.7 |
| 20260904082559 | 83 | 93 | 2.0 | 4.0 | 0.00 | 0.00 | 0.00 | 41 | 1020.6 |
| 20260904081550 | 81 | 327 | 0.0 | 2.0 | 0.00 | 0.00 | 0.00 | 43 | 1020.6 |
| 20260904081210 | 81 | 327 | 1.0 | 2.0 | 0.00 | 0.00 | 0.00 | 44 | 1020.6 |
| 20260904075544 | 80 | 327 | 1.0 | 3.0 | 0.00 | 0.00 | 0.00 | 46 | 1020.4 |
| 20260904074543 | 79 | 299 | 0.0 | 3.0 | 0.00 | 0.00 | 0.00 | 49 | 1020.3 |
| 20260904073545 | 78 | 247 | 2.0 | 3.0 | 0.00 | 0.00 | 0.00 | 49 | 1020.2 |
| 20260904072544 | 78 | 254 | 2.0 | 5.0 | 0.00 | 0.00 | 0.00 | 50 | 1020.2 |
| 20260904071544 | 76 | 275 | 2.0 | 4.0 | 0.00 | 0.00 | 0.00 | 52 | 1020.2 |
| 20260904070559 | 75 | 250 | 2.0 | 3.0 | 0.00 | 0.00 | 0.00 | 52 | 1020.1 |
| 20260904065545 | 74 | 251 | 2.0 | 3.0 | 0.00 | 0.00 | 0.00 | 54 | 1020.1 |
| 20260904064539 | 74 | 226 | 2.0 | 3.0 | 0.00 | 0.00 | 0.00 | 55 | 1020.1 |
| 20260904064240 | 73 | 252 | 2.0 | 4.0 | 0.00 | 0.00 | 0.00 | 56 | 1020.2 |
| 20260904062542 | 72 | 258 | 0.0 | 4.0 | 0.00 | 0.00 | 0.00 | 57 | 1020.1 |
| 20260904061542 | 71 | 272 | 2.0 | 4.0 | 0.00 | 0.00 | 0.00 | 57 | 1020.0 |
| 20260904060545 | 71 | 258 | 2.0 | 4.0 | 0.00 | 0.00 | 0.00 | 58 | 1020.1 |
| 20260904055538 | 71 | 245 | 3.0 | 4.0 | 0.00 | 0.00 | 0.00 | 58 | 1020.2 |